Altus AFB, OK

12:58 PM CDT on October 17, 2017 (GMT -0500)
Altus Air Force Base

Weather History for KLTS - September, 2012

Change the Weather History Date:

Tuesday, September 11, 2012

  Actual Average Record
Temperature  
Mean Temperature 78 °F -  
Max Temperature 96 °F 87 °F 105 °F (2000)
Min Temperature 61 °F 64 °F 51 °F (2001)
Cooling Degree Days 13    
Growing Degree Days 28 (Base 50)    
Moisture  
Dew Point 48 °F    
Average Humidity 37    
Maximum Humidity 62    
Minimum Humidity 21    
Precipitation  
Precipitation 0.00 in - - ()
Sea Level Pressure  
Sea Level Pressure 29.94 in    
Wind  
Wind Speed 12 mph (SE)    
Max Wind Speed 23 mph    
Max Gust Speed 30 mph    
Visibility 10 miles    
Events      
Averages and records for this station are not official NWS values.
T = Trace of Precipitation, MM = Missing Value Source: NWS Daily Summary

Daily Weather History Graph

Daily Weather History Graph

Search for Another Location

Airport or City:

Trip Planner

Search our weather history database for the weather conditions in past years. The results will help you decide how hot, cold, wet, or windy it might be!

Date:

Astronomy

Sep. 11, 2012 Rise Set
Actual Time 7:17 AM CDT 7:48 PM CDT
Civil Twilight 6:52 AM CDT 8:14 PM CDT
Nautical Twilight 6:22 AM CDT 8:43 PM CDT
Astronomical Twilight 5:52 AM CDT 9:14 PM CDT
Moon 2:45 AM CDT (9/11) 4:52 PM CDT (9/11)
Length of Visible Light 13h 21m
Length of Day
12h 31m
Waning Crescent, 21% of the Moon is Illuminated
Sep 11
Waning Crescent
Sep 15
New
Sep 22
First Quarter
Sep 29
Full
Oct 8
Last Quarter

Hourly Weather History & Observations

Time (CDT) Temp. Dew Point Humidity Pressure Visibility Wind Dir Wind Speed Gust Speed Precip Events Conditions
12:55 AM 72.5 °F 45.7 °F 38% 29.97 in 10.0 mi SE 9.2 mph - N/A   Clear
1:55 AM 70.3 °F 46.6 °F 43% 29.97 in 10.0 mi ESE 5.8 mph - N/A   Clear
2:55 AM 66.2 °F 47.3 °F 51% 29.97 in 10.0 mi ESE 6.9 mph - N/A   Clear
3:55 AM 64.2 °F 47.5 °F 55% 29.96 in 10.0 mi ESE 5.8 mph - N/A   Clear
4:55 AM 62.2 °F 47.1 °F 58% 29.97 in 10.0 mi SE 4.6 mph - N/A   Clear
5:55 AM 61.2 °F 47.1 °F 60% 29.97 in 10.0 mi ESE 5.8 mph - N/A   Clear
6:55 AM 61.2 °F 48.2 °F 62% 29.98 in 10.0 mi East 4.6 mph - N/A   Clear
7:55 AM 61.5 °F 48.4 °F 62% 29.99 in 10.0 mi ESE 9.2 mph - N/A   Clear
8:55 AM 71.1 °F 48.4 °F 44% 30.00 in 10.0 mi SSE 13.8 mph - N/A   Clear
9:55 AM 77.2 °F 48.7 °F 37% 30.00 in 10.0 mi South 19.6 mph - N/A   Clear
10:55 AM 82.9 °F 49.3 °F 31% 30.00 in 10.0 mi SSE 13.8 mph - N/A   Clear
11:55 AM 87.4 °F 48.4 °F 26% 29.99 in 10.0 mi South 21.9 mph 25.3 mph N/A   Clear
12:55 PM 90.5 °F 48.7 °F 24% 29.97 in 10.0 mi South 18.4 mph - N/A   Clear
1:55 PM 93.0 °F 50.0 °F 23% 29.94 in 10.0 mi South 18.4 mph 29.9 mph N/A   Clear
2:55 PM 94.8 °F 51.1 °F 23% 29.91 in 10.0 mi SSE 20.7 mph 27.6 mph N/A   Clear
3:55 PM 95.2 °F 50.5 °F 22% 29.89 in 10.0 mi SSE 20.7 mph 27.6 mph N/A   Clear
4:55 PM 95.4 °F 48.9 °F 21% 29.88 in 10.0 mi SSE 23.0 mph 28.8 mph N/A   Clear
5:55 PM 94.3 °F 48.9 °F 21% 29.87 in 10.0 mi SSE 18.4 mph 27.6 mph N/A   Clear
6:55 PM 91.8 °F 49.5 °F 23% 29.87 in 10.0 mi SE 21.9 mph 25.3 mph N/A   Clear
7:55 PM 86.7 °F 48.0 °F 26% 29.88 in 10.0 mi SE 16.1 mph - N/A   Clear
8:55 PM 82.9 °F 47.1 °F 29% 29.89 in 10.0 mi SE 18.4 mph - N/A   Clear
9:55 PM 81.5 °F 45.0 °F 28% 29.92 in 10.0 mi SE 19.6 mph 25.3 mph N/A   Clear
10:55 PM 78.8 °F 46.2 °F 32% 29.92 in 10.0 mi SE 17.3 mph 25.3 mph N/A   Clear
11:55 PM 75.9 °F 48.2 °F 37% 29.93 in 10.0 mi SE 11.5 mph - N/A   Clear